Location: Dos Palmas
(32.4468°N, 116.8732°W)
Time: 23:14:58
(UTC+00:00)

Cosmos 2333 - Pass Details

Date: 20 June 2021
Orbit: 832 x 864 km, 70.9° (Epoch: 01 August)

Event Time Altitude Azimuth Distance (km) Brightness Sun altitude
Exits shadow 04:42:14 - 196° (SSW) 2,801 6.6 -18.5°
Reaches altitude 10° 04:43:03 10° 195° (SSW) 2,491 6.4 -18.6°
Maximum altitude 04:48:47 82° 110° (ESE) 871 4.1 -19.5°
Drops below altitude 10° 04:54:31 10° 22° (NNE) 2,489 6.9 -20.3°
Sets 04:56:58 0° 22° (NNE) 3,423 7.7 -20.6°
